Home   Weather   Tirana   Past weeks

Flag for Albania Past Weather in Tirana, Albania — Yesterday and Last 2 Weeks

Now
45 °F

Partly cloudy.


Feels Like: 45 °F
Forecast: 46 / 67 °F
Wind: 1 mph from North

Location: Podgorica Titograd

Current Time: Feb 26, 2017 at 12:23:50 am

Latest Report: Feb 25, 2017 at 11:30 pm


Visibility: N/A

Pressure: 30.15 "Hg

Humidity: 93%

Dew Point: 43 °F

Location of TiranaLocation

Past Weather in Tirana — Graph

°F

Tirana Temperature Yesterday

Maximum temperature yesterday: 54 °F (at 12:00 am)
Minimum temperature yesterday: 45 °F (at 8:30 am)
Average temperature yesterday: 48 °F

High & Low Weather Summary for the Past Weeks

 TemperatureHumidityPressure
High64 °F (Feb 16, 2:00 pm)100% (Feb 24, 11:00 pm)30.54 "Hg (Feb 24, 11:00 pm)
Low30 °F (Feb 15, 4:30 am)17% (Feb 15, 3:30 pm)29.89 "Hg (Feb 25, 2:30 am)
Average45 °F66%30.23 "Hg
* Reported Feb 10 11:00 pm — Feb 25 11:30 pm, Tirana, Weather by CustomWeather, © 2017

Note: Actual official high and low records may vary slightly from our data, if they occured in-between our weather recording intervals... More about our weather records

Advertising

Tirana Weather History for the Previous 24 Hours

Scroll right to see more
 ConditionsComfort  
Time TempWeatherWind HumidityBarometerVisibility
11:30 pm
Sat, Feb 25
45 °FPartly cloudy.1 mph93%30.15 "HgN/A
11:00 pm45 °FPartly cloudy.1 mph93%30.15 "HgN/A
10:30 pm45 °FPartly cloudy.2 mph93%30.15 "HgN/A
10:00 pm45 °FPartly cloudy.5 mph93%30.15 "HgN/A
9:30 pm45 °FPartly cloudy.5 mph87%30.15 "HgN/A
9:00 pm45 °FPartly cloudy.2 mph87%30.15 "HgN/A
8:30 pm46 °FMostly cloudy.8 mph76%30.15 "HgN/A
8:00 pm46 °FMostly cloudy.5 mph82%30.15 "HgN/A
7:30 pm46 °FLight rain. Mostly cloudy.2 mph82%30.15 "HgN/A
7:00 pm46 °FLight rain. Mostly cloudy.6 mph76%30.15 "HgN/A
6:30 pm46 °FLight rain. Mostly cloudy.12 mph82%30.12 "HgN/A
6:00 pm46 °FLight rain. Mostly cloudy.6 mph82%30.12 "HgN/A
5:30 pm46 °FLight rain. Mostly cloudy.7 mph82%30.12 "HgN/A
5:00 pm46 °FLight rain. Mostly cloudy.9 mph76%30.09 "HgN/A
4:30 pm46 °FMostly cloudy.10 mph76%30.09 "HgN/A
4:00 pm46 °FMostly cloudy.8 mph76%30.09 "HgN/A
3:30 pm46 °FMostly cloudy.3 mph76%30.09 "HgN/A
3:00 pm46 °FLight rain. Mostly cloudy.6 mph82%30.09 "HgN/A
2:30 pm46 °FLight rain. Mostly cloudy.9 mph71%30.09 "HgN/A
2:00 pm46 °FLight rain. Mostly cloudy.10 mph66%30.09 "HgN/A
1:30 pm46 °FLight rain. Mostly cloudy.13 mph66%30.07 "HgN/A
1:00 pm46 °FLight rain. Mostly cloudy.15 mph71%30.07 "HgN/A
12:30 pm45 °FLight rain. Mostly cloudy.16 mph76%30.07 "HgN/A
12:00 pm45 °FLight rain. Mostly cloudy.23 mph71%30.07 "HgN/A
11:30 am45 °FLight rain. Mostly cloudy.25 mph71%30.07 "HgN/A
11:00 am45 °FLight rain. Mostly cloudy.29 mph71%30.07 "HgN/A
10:30 am45 °FLight rain. Mostly cloudy.24 mph71%30.07 "HgN/A
10:00 am45 °FLight rain. Mostly cloudy.26 mph76%30.04 "HgN/A
9:30 am45 °FLight rain. Mostly cloudy.29 mph76%30.04 "HgN/A
9:00 am45 °FRain. Mostly cloudy.23 mph81%30.04 "HgN/A
8:30 am45 °FRain. Mostly cloudy.22 mph81%30.01 "HgN/A
8:00 am46 °FRain. Mostly cloudy.18 mph76%29.98 "HgN/A
7:30 am46 °FRain. Mostly cloudy.24 mph87%29.98 "HgN/A
7:00 am54 °FRain. Mostly cloudy.8 mph88%29.95 "HgN/A
6:30 am52 °FLight rain. Mostly cloudy.14 mph94%29.92 "HgN/A
6:00 am52 °FRain. Mostly cloudy.15 mph94%29.92 "Hg5 mi
5:30 am52 °FRain. Mostly cloudy.17 mph88%29.89 "Hg4 mi
5:00 am52 °FHeavy rain. Mostly cloudy.17 mph94%29.89 "Hg4 mi
4:30 am52 °FHeavy rain. Mostly cloudy.21 mph94%29.89 "Hg4 mi
4:00 am54 °FRain. Mostly cloudy.18 mph88%29.89 "Hg4 mi
3:30 am52 °FHeavy rain. Mostly cloudy.20 mph94%29.89 "Hg4 mi
3:00 am54 °FHeavy rain. Mostly cloudy.17 mph88%29.92 "Hg3 mi
2:30 am54 °FHeavy rain. Mostly cloudy.16 mph88%29.89 "Hg4 mi
2:00 am54 °FHeavy rain. Mostly cloudy.18 mph94%29.92 "Hg3 mi
1:30 am54 °FHeavy rain. Mostly cloudy.16 mph88%29.95 "Hg3 mi
1:00 am54 °FHeavy rain. Mostly cloudy.17 mph88%29.92 "Hg4 mi
12:30 am54 °FHeavy rain. Mostly cloudy.16 mph88%29.92 "Hg4 mi
12:00 am54 °FRain. Mostly cloudy.13 mph94%29.95 "Hg6 mi
Weather by CustomWeather, © 2017

See weather overviewHow to use our weather pages